User: anonymous   Login
Location: Unspecified
(0.0000°N, 0.0000°E)
Time: 23:17:19
(UTC+00:00)
Language:

STARLINK-33598 - Orbit

View from above orbital plane
View from above orbital plane
View from above satellite
View from above satellite

Ground track
Ground track

The orbit is defined by the following mean orbital elements,

1 62771U          26145.58335647 +.00000000 +00000-0 +27084-3 0 00009
2 62771  53.1604 325.0201 0001429  70.5610  75.4478 15.33584049    09
Epoch (UTC): 25 May 2026 14:00:01
Eccentricity: 0.0001429
inclination: 53.1604°
perigee height: 464 km
apogee height: 466 km
right ascension of ascending node: 325.0201°
argument of perigee: 70.5610°
revolutions per day: 15.33584049
mean anomaly at epoch: 75.4478°

The dashed part of the orbit path shows where the satellite is in the earth's shadow,  

DLR